Printer-friendly version
Follow the MPC on Twitter Follow the MPC on Facebook The MPC blog
Minor Planet Center

MPEC 2010-K07 : 2010 JL88

The following Minor Planet Electronic Circular may be linked-to from your own Web pages, but must not otherwise be redistributed electronically.

A form allowing access to any MPEC is at the bottom of this page.


Read MPEC 2010-K06 Read MPEC 2010-K08


M.P.E.C. 2010-K07                                Issued 2010 May 17, 01:15 UT

     The Minor Planet Electronic Circulars contain information on unusual
         minor planets and routine data on comets.  They are published
   on behalf of Commission 20 of the International Astronomical Union by the
          Minor Planet Center, Smithsonian Astrophysical Observatory,
                          Cambridge, MA 02138, U.S.A.

             Prepared using the Tamkin Foundation Computer Network

                              MPC@CFA.HARVARD.EDU
       URL http://www.minorplanetcenter.org/iau/mpc.html  ISSN 1523-6714

                                   2010 JL88

Observations:
     K10J88L* C2010 05 15.59303 14 40 01.63 -20 23 42.5          18.1 V EK007E12
     K10J88L  C2010 05 15.60315 14 39 44.20 -20 24 13.3          18.0 V EK007E12
     K10J88L  C2010 05 15.61325 14 39 26.64 -20 24 43.4          18.1 V EK007E12
     K10J88L  C2010 05 15.62337 14 39 08.85 -20 25 12.2          18.1 V EK007E12
     K10J88L QC2010 05 15.64211114 38 35.663-20 26 06.48         18.1 V EK007E12
     K10J88L QC2010 05 15.64425814 38 31.837-20 26 12.21         17.9 V EK007E12
     K10J88L QC2010 05 15.70741314 36 36.692-20 29 02.54         17.8 V EK007E12
     K10J88L QC2010 05 15.70947914 36 32.865-20 29 07.95         17.7 V EK007E12
     K10J88L KC2010 05 15.92667 14 30 05.29 -20 59 30.2                 EK007J95
     K10J88L KC2010 05 15.92962 14 29 57.94 -20 59 45.7                 EK007J95
     K10J88L KC2010 05 15.93268 14 29 50.36 -21 00 02.0          17.9 R EK007J95
     K10J88L KC2010 05 16.03096 14 25 26.46 -21 08 43.5                 EK007J95
     K10J88L KC2010 05 16.03553 14 25 13.32 -21 09 07.3                 EK007J95
     K10J88L KC2010 05 16.04010 14 25 00.10 -21 09 30.9          17.9 R EK007J95
     K10J88L  C2010 05 16.18214 14 18 34.21 -21 21 58.5          17.7 R EK007926
     K10J88L  C2010 05 16.18309 14 18 30.68 -21 22 05.6          17.6 R EK007926
     K10J88L  C2010 05 16.18404 14 18 27.17 -21 22 12.7          17.6 R EK007926
     K10J88L |C2010 05 16.18460 14 18 20.07 -21 22 40.8                 EK007H06
     K10J88L |C2010 05 16.18660 14 18 12.56 -21 22 55.7                 EK007H06
     K10J88L |C2010 05 16.18860 14 18 05.07 -21 23 11.0          17.2 C EK007H06
     K10J88L  C2010 05 16.21892 14 16 13.40 -21 26 40.3          17.3 V EK007G96
     K10J88L  C2010 05 16.21951 14 16 11.02 -21 26 44.3          17.1 V EK007G96
     K10J88L  C2010 05 16.21979 14 16 09.94 -21 26 46.5          17.2 V EK007G96
     K10J88L .C2010 05 16.25700 14 13 32.14 -21 31 17.6          16.8 R EK007H06
     K10J88L .C2010 05 16.25929 14 13 22.39 -21 31 34.0          16.7 R EK007H06
     K10J88L .C2010 05 16.26043 14 13 17.56 -21 31 42.5          16.8 R EK007H06
     K10J88L  C2010 05 16.26535 14 12 58.20 -21 32 28.0          16.6 R EK007H01
     K10J88L  C2010 05 16.27313 14 12 24.48 -21 33 22.4          16.8 R EK007H01
     K10J88L  C2010 05 16.27789 14 12 06.70 -21 33 35.8          17.2 R EK007651
     K10J88L  C2010 05 16.27835 14 12 04.76 -21 33 38.7          17.2 R EK007651
     K10J88L  C2010 05 16.27926 14 12 00.66 -21 33 45.6          17.2 R EK007651
     K10J88L  C2010 05 16.28130 14 11 48.63 -21 34 19.0          16.5 R EK007H01
     K10J88L  C2010 05 16.29081 14 11 06.25 -21 35 24.1          16.6 R EK007H01
     K10J88L  C2010 05 16.29771 14 10 38.15 -21 35 51.5          17.0 R EK007926
     K10J88L  C2010 05 16.29867 14 10 33.80 -21 35 58.0          17.3 R EK007926
     K10J88L  C2010 05 16.29962 14 10 29.43 -21 36 04.4          17.6 R EK007926
     K10J88L  C2010 05 16.32841 14 08 14.39 -21 39 19.1          17.5 R EK007926
     K10J88L  C2010 05 16.32936 14 08 09.85 -21 39 25.3          17.7 R EK007926
     K10J88L  C2010 05 16.33032 14 08 05.24 -21 39 31.8          17.8 R EK007926
     K10J88L  C2010 05 16.49778 13 54 17.61 -22 03 52.7          17.1 V EK007900
     K10J88L  C2010 05 16.49908 13 54 08.85 -22 04 06.2          17.1 V EK007900
     K10J88L  C2010 05 16.50039 13 54 00.01 -22 04 18.3          17.0 V EK007900
     K10J88L KC2010 05 16.87460 12 47 18.44 -22 49 43.5          17.4 R EK007A99
     K10J88L KC2010 05 16.87498 12 47 11.78 -22 49 41.7          16.9 R EK007A99
     K10J88L KC2010 05 16.87534 12 47 05.32 -22 49 41.8          16.8 R EK007A99
     K10J88L KC2010 05 16.87570 12 46 58.63 -22 49 40.5          17.0 R EK007A99
     K10J88L KC2010 05 16.89474 12 41 02.39 -22 48 15.6          16.4 R EK007A99
     K10J88L KC2010 05 16.89503 12 40 56.76 -22 48 14.3          16.4 R EK007A99
     K10J88L KC2010 05 16.89533 12 40 51.10 -22 48 12.7          16.0 R EK007A99
     K10J88L KC2010 05 16.89562 12 40 45.31 -22 48 10.6          15.8 R EK007A99
     K10J88L KC2010 05 16.89602 12 40 37.61 -22 48 09.3          16.8 R EK007A99
     K10J88L SC2010 05 16.91366312 35 12.01 -22 47 37.9                 EK007J95
     K10J88L SC2010 05 16.91499912 34 44.75 -22 47 25.4                 EK007J95
     K10J88L SC2010 05 16.91593212 34 25.67 -22 47 18.7          16.7 R EK007J95
     K10J88L KC2010 05 16.93429712 27 57.97 -22 43 50.3          16.7 R EK007J95
     K10J88L KC2010 05 16.94095612 25 31.74 -22 42 16.1          16.2 R EK007J95
     K10J88L SC2010 05 16.95026512 22 02.22 -22 39 43.9                 EK007J95

Observer details:
651 Grasslands Observatory, Tucson.  Observer J. E. McGaha.  0.62-m f/5.1
    Newtonian reflector + CCD.
900 Moriyama.  Observer Y. Ikari.  0.26-m f/7.0 reflector + CCD.
926 Tenagra II Observatory.  Observers P. R. Holvorcem, M. Schwartz.  Measurer
    P. R. Holvorcem.  0.81-m f/7 Ritchey-Chretien + CCD.
A99 Osservatorio del Monte Baldo.  Observer C. Flavio.  Measurer M. Claudio.
    0.4-m f/8 Ritchey-Chretien + CCD.
E12 Siding Spring Survey.  Observer R. H. McNaught.  Measurers J. D. Ahern,
    E. C. Beshore, A. Boattini, G. J. Garradd, A. R. Gibbs, A. D. Grauer,
    R. E. Hill, R. A. Kowalski, S. M. Larson, R. H. McNaught.  0.5-m Uppsala
    Schmidt + CCD.
G96 Mt. Lemmon Survey.  Observer A. R. Gibbs.  Measurers J. D. Ahern,
    E. C. Beshore, A. Boattini, G. J. Garradd, A. R. Gibbs, A. D. Grauer,
    R. E. Hill, R. A. Kowalski, S. M. Larson, R. H. McNaught.  1.5-m reflector
    + CCD.
H01 Magdalena Ridge Observatory, Socorro.  Observers W. H. Ryan, E. V. Ryan.
    Measurer W. H. Ryan.  2.4-m f/8.9 reflector + CCD.
H06 RAS Observatory, Mayhill.  Observers H. Sato, C. Jacques, E. Pimentel.
    Measurers H. Sato, C. Jacques.  0.25-m f/3.3 reflector + CCD, 0.25-m f/3.4
    reflector + CCD.
J95 Great Shefford.  Observer P. Birtwhistle.  0.40-m f/6.0 Schmidt-Cassegrain
    + CCD.

Orbital elements:
2010 JL88                                                Earth MOID = 0.0012 AU
Epoch 2010 July 23.0 TT = JDT 2455400.5                 MPC
M   7.43466              (2000.0)            P               Q
n   0.58058316     Peri.   45.39315     +0.76843549     +0.63992462
a   1.4230705      Node   274.82056     -0.58764308     +0.70451138
e   0.5033917      Incl.    0.10572     -0.25334266     +0.30685534
P   1.70           H   26.8           G   0.15           U   6
Residuals in seconds of arc
100515 E12  0.4+  1.0+    100516 H06  0.6-  1.3-    100516 926  0.3+  0.2-
100515 E12  0.4+  0.6+    100516 G96  0.3-  0.1-    100516 900  0.6+  0.6+
100515 E12  0.3+  0.3+    100516 G96  0.9-  0.3+    100516 900  0.1+  0.3-
100515 E12  0.5-  0.9+    100516 G96  0.5-  0.1+    100516 900  0.1-  0.4+
100515 E12  0.1-  0.0     100516 H06  1.2+  0.6+    100516 A99 (7.2-  0.2-)
100515 E12  0.0   0.3+    100516 H06  1.0+  0.1+    100516 A99 (4.1-  0.6+)
100515 E12  0.3-  0.2+    100516 H06  1.4+  0.5-    100516 A99 (3.2-  0.5-)
100515 E12  0.2-  0.1+    100516 H01  0.8+  0.2+    100516 A99 (5.4-  0.2-)
100515 J95  0.2+  0.6-    100516 H01  0.3+  0.0     100516 A99 (5.6-  0.2+)
100515 J95  0.2-  0.2-    100516 651  0.5-  0.1-    100516 A99 (6.2-  0.2-)
100515 J95  0.6+  0.0     100516 651  0.7+  0.3+    100516 A99 (4.4-  0.5-)
100516 J95  0.1+  0.1-    100516 651  0.4-  0.3-    100516 A99 (7.0-  0.2-)
100516 J95  0.2+  0.0     100516 H01  0.6+  0.1-    100516 A99 (6.5-  1.4-)
100516 J95  0.2+  0.2+    100516 H01  0.6+  0.0     100516 J95  0.0   0.9-
100516 926  0.6+  0.1-    100516 926  0.2+  0.1-    100516 J95  0.0   0.2-
100516 926  0.3+  0.2-    100516 926  0.7+  0.0     100516 J95  0.4+  2.0-
100516 926  0.3+  0.2-    100516 926  0.3+  0.1+    100516 J95  1.0+  0.2+
100516 H06  0.5+  0.2-    100516 926  0.2-  0.1-    100516 J95  0.7+  0.4-
100516 H06  0.4-  0.5-    100516 926  0.2+  0.0     100516 J95  1.0+  0.1-

Ephemeris:
2010 JL88                a,e,i = 1.42, 0.50, 0                   q = 0.7067
Date    TT    R. A. (2000) Decl.     Delta      r     Elong.  Phase     V
2010 05 14.0  15 00.66   -19 34.3    0.0282   1.039   174.8     5.1    19.6
2010 05 14.5  14 56.74   -19 44.8    0.0240   1.035   173.4     6.4    19.3
2010 05 15.0  14 51.11   -19 59.4    0.0197   1.030   171.6     8.2    18.9
2010 05 15.5  14 42.39   -20 20.6    0.0155   1.026   169.1    10.7    18.5
2010 05 16.0  14 27.08   -20 53.7    0.0113   1.022   165.1    14.8    17.9

2010 05 16.1  14 22.53   -21 02.5    0.0105   1.021   163.9    15.9    17.8
2010 05 16.2  14 17.19   -21 12.3    0.00964  1.020   162.6    17.3    17.7
2010 05 16.3  14 10.83   -21 23.0    0.00882  1.019   161.0    18.9    17.5
2010 05 16.4  14 03.16   -21 34.8    0.00801  1.019   159.1    20.7    17.4
2010 05 16.5  13 53.74   -21 47.4    0.00720  1.018   156.8    23.0    17.2
2010 05 16.6  13 41.94   -22 00.3    0.00641  1.017   154.0    25.9    17.0
2010 05 16.7  13 26.82   -22 12.2    0.00564  1.016   150.4    29.4    16.9
2010 05 16.8  13 06.95   -22 19.9    0.00489  1.015   145.7    34.1    16.7
2010 05 16.9  12 40.17   -22 15.8    0.00419  1.014   139.4    40.4    16.5
2010 05 17.0  12 03.39   -21 43.4    0.00355  1.014   130.8    49.0    16.4
2010 05 17.1  11 13.04   -20 08.8    0.00303  1.013   118.9    61.0    16.4
2010 05 17.2  10 07.92   -16 42.8    0.00268  1.012   103.0    76.9    16.6
2010 05 17.3  08 54.51   -11 07.5    0.00258  1.011    84.2    95.6    17.3
2010 05 17.4  07 46.06   -04 40.4    0.00276  1.010    66.0   113.8    18.4
2010 05 17.5  06 51.57   +00 53.1    0.00316  1.009    51.3   128.6    19.9
2010 05 17.6  06 11.40   +04 57.7    0.00372  1.009    40.4   139.5    21.5
2010 05 17.7  05 42.22   +07 48.6    0.00438  1.008    32.5   147.4    23.0

Carl W. Hergenrother         (C) Copyright 2010 MPC           M.P.E.C. 2010-K07

Read MPEC 2010-K06 Read MPEC 2010-K08


MPEC number:

Enter an MPEC number in one of the following forms:

  • 1997-B01 (the full form)
  • J97B01 (the packed version of the full form)
  • B01 (the abbreviated form)

Valid HTML 4.01!